{"data":{"norad_id":62284,"epoch":"2026-09-21T05:06:00.010368Z","epoch_age_seconds":116081,"freshness":"FRESH","line1":"1 62284U 24237T   26264.21250012  .00012644  00000+0  46793-3 0  9991","line2":"2 62284  42.9999 192.2318 0001659 265.2905  94.7757 15.27598820101099","mean_motion":15.2759882,"eccentricity":0.0001659,"inclination_deg":42.9999,"raan_deg":192.2318,"arg_perigee_deg":265.2905,"mean_anomaly_deg":94.7757,"bstar":0.00046793,"rev_number":10109,"period_min":94.265587348385,"perigee_km":481.85448134343,"apogee_km":484.13100419209,"semimajor_km":6861.1297427678,"source":"CELESTRAK","updated_at":"2026-09-22T09:00:49.569179Z"}}